Terminal Aerodrome Forecast
Issued by NWS

Home | Current Version | Previous Version | Text Only | Print | Product List | Glossary On
Versions: 1 2 3 4 5 6 7 8 9 10 11 12 13 14 15 16
000
FTUS42 TJSJ 310536
TAFIST
TAF
TIST 310536Z 3106/0106 08008KT P6SM VCSH SKC
     FM311300 13015G25KT P6SM SCT025 SCT050
     FM312300 09010KT P6SM FEW025=

USA.gov is the U.S. government's official web portal to all federal, state and local government web resources and services.